Location: Newark
(49.8348°N, 24.0280°E)
Time: 05:32:09
(UTC+00:00)

Tiros 1 despin weight - All Passes

Search period start: 24 January 2020 00:00
Search period end: 03 February 2020 00:00
Orbit: 594 x 642 km, 48.2° (Epoch: 23 January)

Date Brightness Start Highest point End Pass type
(mag) Time Alt. Az. Time Alt. Az. Time Alt. Az.
24 Jan - 09:28:33 10° S 09:31:35 18° SE 09:34:38 10° E daylight
24 Jan - 11:08:02 10° SW 11:12:25 49° SSE 11:16:54 10° E daylight
24 Jan - 12:49:13 10° W 12:53:48 74° S 12:58:28 10° E daylight
24 Jan - 14:30:43 10° W 14:35:12 50° SSW 14:39:44 10° SE daylight
24 Jan - 16:12:52 10° W 16:16:07 19° SW 16:19:22 10° S visible
25 Jan - 09:43:56 10° SSW 09:47:47 28° SSE 09:51:40 10° E daylight
25 Jan - 11:24:23 10° WSW 11:28:53 63° SSE 11:33:28 10° E daylight
25 Jan - 13:05:45 10° W 13:10:20 70° S 13:14:59 10° ESE daylight
25 Jan - 14:47:20 10° W 14:51:36 36° SSW 14:55:52 10° SE daylight
25 Jan - 16:31:00 10° WSW 16:32:13 11° SW 16:33:26 10° SSW visible
26 Jan - 08:21:22 10° SSE 08:23:24 13° SE 08:25:27 10° ESE daylight
26 Jan - 09:59:51 10° SW 10:04:05 40° SSE 10:08:24 10° E daylight
26 Jan - 11:40:50 10° WSW 11:45:23 72° S 11:50:01 10° E daylight
26 Jan - 13:22:17 10° W 13:26:49 58° SSW 13:31:24 10° ESE daylight
26 Jan - 15:04:08 10° W 15:07:52 24° SW 15:11:38 10° SSE daylight
27 Jan - 08:36:08 10° SSW 08:39:32 21° SE 08:42:59 10° E daylight
27 Jan - 10:16:04 10° WSW 10:20:29 55° SSE 10:25:00 10° E daylight
27 Jan - 11:57:20 10° W 12:01:54 73° S 12:06:32 10° E daylight
27 Jan - 13:38:52 10° W 13:43:15 44° SSW 13:47:41 10° SE daylight
27 Jan - 15:21:23 10° WSW 15:24:02 15° SW 15:26:43 10° S daylight
28 Jan - 08:51:46 10° SW 08:55:46 32° SSE 08:59:52 10° E daylight
28 Jan - 10:32:28 10° WSW 10:36:58 68° S 10:41:33 10° E daylight
28 Jan - 12:13:53 10° W 12:18:25 66° S 12:23:01 10° ESE daylight
28 Jan - 13:55:32 10° W 13:59:36 31° SSW 14:03:41 10° SSE daylight
29 Jan - 07:28:36 10° S 07:31:20 16° SE 07:34:06 10° ESE daylight
29 Jan - 09:07:50 10° SW 09:12:08 46° SSE 09:16:31 10° E daylight
29 Jan - 10:48:57 10° W 10:53:29 73° S 10:58:05 10° E daylight
29 Jan - 12:30:26 10° W 12:34:53 52° SSW 12:39:24 10° ESE daylight
29 Jan - 14:12:28 10° W 14:15:50 20° SW 14:19:13 10° S daylight
30 Jan - 07:43:50 10° SSW 07:47:30 26° SSE 07:51:15 10° E daylight
30 Jan - 09:24:08 10° WSW 09:28:34 61° SSE 09:33:05 10° E daylight
30 Jan - 11:05:29 10° W 11:10:00 71° S 11:14:36 10° ESE daylight
30 Jan - 12:47:02 10° W 12:51:17 38° SSW 12:55:34 10° SE daylight
30 Jan - 14:30:15 10° WSW 14:31:58 12° SW 14:33:40 10° SSW daylight
31 Jan - 06:21:41 10° SSE 06:23:10 11° SE 06:24:40 10° ESE daylight
31 Jan - 07:59:40 10° SW 08:03:48 38° SSE 08:08:00 10° E daylight
31 Jan - 09:40:34 10° WSW 09:45:04 71° S 09:49:38 10° E daylight
31 Jan - 11:22:00 10° W 11:26:30 60° SSW 11:31:03 10° ESE daylight
31 Jan - 13:03:48 10° W 13:07:35 26° SSW 13:11:24 10° SSE daylight
01 Feb - 06:36:05 10° S 06:39:17 20° SE 06:42:31 10° E daylight
01 Feb - 08:15:51 10° WSW 08:20:12 52° SSE 08:24:37 10° E daylight
01 Feb - 09:57:05 10° W 10:01:35 73° S 10:06:10 10° E daylight
01 Feb - 11:38:35 10° W 11:42:57 46° SSW 11:47:21 10° SE daylight
01 Feb - 13:20:57 10° WSW 13:23:46 16° SW 13:26:38 10° S daylight
02 Feb - 06:51:38 10° SSW 06:55:31 30° SSE 06:59:28 10° E daylight
02 Feb - 08:32:13 10° WSW 08:36:39 66° S 08:41:11 10° E daylight
02 Feb - 10:13:36 10° W 10:18:06 67° S 10:22:39 10° ESE daylight
02 Feb - 11:55:14 10° W 11:59:18 32° SSW 12:03:24 10° SE daylight
